Content
SEND FEEDBACK

Daily
Averages
Monthly
Summary
South Korea

PYONGT'AEK, SOUTH KOREA


Home > Asia > South Korea
Elevation: 46 feet     Latitude: 36 57N     Longitude: 127 02E

WEATHER
 
SELECT A DAY
Number of Records: 132,403;   Date Range: 8/1/96 - 7/30/14
 
SHARE

PRINT THIS DATA

[ ← Previous Day ]
WEATHER ALMANAC - JANUARY 3, 2013
[ Next Day → ]
[ °C ]   °F
Weather ElementAverageHighLow
Temperature7.6 °F18 °F (2:55 pm)-4 °F (6:00 am)
Dewpoint-2 °F4.6 °F (2:55 pm)-12 °F (6:00 am)
Humidity64.2 %99 % (8:55 am)19 % (3:00 pm)
Barometer30.66 in30.71 in (8:55 am)30.61 in (3:00 pm)
Wind Speed4.6 mph13.4 mph (3:00 pm)
Weather ElementAverage
Visibility9.3 mi
Wind DirectionSW (222.5 °)

Weather ElementTotal
Precipitation---
Heating Degree Days58 (Base 65)
Averaged from 33 records on January 3, 2013
WEATHER CONDITIONS BREAKOUT
WIND DIRECTION BREAKOUT
WEATHER BY HOUR - JANUARY 3, 2013
[ °C ]   °F
Local TimeTemperatureDewpointHumidityBarometerVisibilityWind DirectionWind SpeedGust SpeedPrecipitationEventsConditions
12:55 AM5.0 °F3.2 °F92 %30.64 in10.0 miCalmClear
1:55 AM4.3 °F2.8 °F94 %30.66 in10.0 miNNW (330°)6.9 mphClear
2:55 AM3.7 °F-0.6 °F82 %30.67 in10.0 miNW (320°)4.6 mphClear
3:00 AM0.0 °F-8.0 °F53 %30.66 in°2.2 mph
3:55 AM1.2 °F-5.8 °F72 %30.68 in10.0 miNorth (350°)3.5 mphClear
4:55 AM3.4 °F-6.0 °F65 %30.67 in10.0 miNNW (340°)3.5 mphClear
5:55 AM0.3 °F-3.8 °F83 %30.68 in10.0 miNW (320°)3.5 mphClear
6:00 AM-4.0 °F-12.0 °F55 %30.66 inWSW (250°)1.2 mph
6:55 AM-1.8 °F-2.6 °F97 %30.69 in10.0 miCalmClear
7:55 AM-3.3 °F-4.2 °F96 %30.70 in10.0 miCalmClear
8:55 AM-1.3 °F-1.5 °F99 %30.71 in7.0 miCalmClear
9:00 AM-4.0 °F-12.0 °F56 %30.71 inESE (110°)2.2 mph
9:55 AM6.4 °F-5.3 °F59 %30.71 in10.0 miCalmClear
10:55 AM9.9 °F-3.6 °F54 %30.71 in10.0 miWNW (290°)3.5 mphClear
11:55 AM12.4 °F-4.4 °F47 %30.69 in10.0 miWNW (290°)8.1 mphClear
12:00 PM10.0 °F-12.0 °F20 %30.67 inWSW (250°)3.5 mph
12:50 PM15.8 °F-0.4 °F49 %30.66 in6.0 miWNW (300°)8.1 mphSnowLight Snow
12:55 PM15.4 °F0.1 °F51 %30.66 in5.0 miWest (270°)10.4 mph0.00 inSnowLight Snow
12:59 PM15.8 °F-0.4 °F49 %30.66 in4.0 miWest (260°)9.2 mphHaze
1:55 PM16.3 °F1.9 °F53 %30.63 in10.0 miWest (280°)8.1 mph0.00 inClear
2:55 PM18.0 °F4.6 °F56 %30.62 in10.0 miWNW (290°)9.2 mphClear
3:00 PM14.0 °F-10.0 °F19 %30.61 inWest (270°)13.4 mph
3:55 PM16.9 °F4.1 °F57 %30.62 in10.0 miNW (320°)11.5 mphClear
4:55 PM15.3 °F4.5 °F62 %30.63 in10.0 miNW (310°)8.1 mphClear
5:55 PM13.1 °F3.0 °F64 %30.63 in10.0 miCalmClear
6:00 PM11.0 °F-5.0 °F32 %30.61 inSSW (200°)2.3 mph
6:55 PM12.4 °F3.7 °F68 %30.63 in10.0 miWNW (290°)3.5 mphClear
7:55 PM11.8 °F3.2 °F68 %30.63 in10.0 miNNW (330°)4.6 mphClear
8:55 PM8.2 °F3.2 °F80 %30.62 in10.0 miNNW (330°)5.8 mphClear
9:00 PM3.0 °F-6.0 °F54 %30.63 inESE (110°)6.7 mph
9:55 PM9.9 °F2.1 °F71 %30.63 in10.0 miNorth (360°)4.6 mphClear
10:55 PM7.0 °F-1.7 °F68 %30.63 in10.0 miNorth (350°)4.6 mphClear
11:55 PM5.0 °F3.0 °F92 %30.63 in10.0 miCalmClear
Hourly data recorded from RKSG, located miles away from Pyongt'aek, South Korea







STORIES FROM OUR PARTNERS